sat.trackr.live / text

‹ back to catalog

STARLINK-30329

NORAD 57635 · 2023-122D

PAYLOAD ACTIVE UNKNOWN

§ Identity

Operator
Country
US
Launch date
2023-08-17
Launch site
AFETR
Launch vehicle
Mass (kg)
RCS (m²)

Purposes: comms

External: N2YO · Heavens-Above · Gunter

§ Orbital elements

Epoch: 2026-09-19T21:18:54.852768Z

Period
94.27 min
Inclination
43.0028°
Eccentricity
0.0001250
Mean motion
15.27587559 rev/d
Perigee alt
482.2 km
Apogee alt
483.9 km
Semi-major
6,861.2 km
B*
6.2218e-5
RAAN
76.0670°
Arg perigee
274.1968°
Mean anomaly
85.8741°
Rev number
17,190

§ Raw data

STARLINK-303291 57635U 23122D   26262.88813487  .00001451  00000+0  62218-4 0  99942 57635  43.0028  76.0670 0001250 274.1968  85.8741 15.27587559171901

JSON: /api/v1/satellites/57635 · /tle

For live sub-satellite position, see the globe view (requires WebGL).

§ Visibility from observer

Set your observer location to see the next 7 days of passes ≥ 10°. The values pass through the URL so the page stays shareable.

No JS? Fill the form by hand. The geolocation button needs JavaScript.